Flag Weather past 2 weeks in Debrecen, Hungary

Now
32 °F

Ice fog.


Feels Like: 32 °F
Forecast: 28 / 41 °F
Wind: 1 mph from West

Location: Debrecen Airport

Current Time: Nov 26, 2014 at 8:06:39 PM

Latest Report: Nov 26, 2014 at 4:45 PM


Visibility: 0 mi

Pressure: 30.27 "Hg

Humidity: 93%

Dew point: 30 °F

Location of DebrecenLocation

Historic Weather in Debrecen — Graph

°F

Debrecen temperature yesterday

Maximum temperature yesterday: 39 °F (at 2:15 PM)
Minimum temperature yesterday: 28 °F (at 5:15 AM)
Average temperature yesterday: 35 °F

Past Weeks' High & Low Weather Summary

 TemperatureHumidityPressure
High61 °F (Nov 12, 1:15 PM)100% (Nov 12, 6:45 AM)30.45 "Hg (Nov 12, 6:45 AM)
Low27 °F (Nov 24, 6:45 AM)57% (Nov 23, 3:45 PM)29.86 "Hg (Nov 13, 5:15 AM)
Average45 °F84%30.12 "Hg
* Reported Nov 11 4:15 PM — Nov 26 4:45 PM, Debrecen, Weather by CustomWeather, © 2014

Note: Actual official high and low records may vary slightly from our data, if they occured in-between our weather recording intervals... More about our weather records

Advertising

Debrecen weather history for previous 24 hours

 ConditionsComfort  
Time TempWeatherWind HumidityBarometerVisibility
4:45 PM
Nov 26
32 °FIce fog.1 mph93%30.27 "Hg0 mi
4:15 PM30 °FIce fog.1 mph100%30.27 "Hg0 mi
3:45 PM30 °FIce fog.1 mph100%30.27 "Hg0 mi
3:15 PM30 °FIce fog.6 mph100%30.27 "Hg0 mi
2:45 PM30 °FIce fog.6 mph100%30.27 "Hg0 mi
2:15 PM32 °FIce fog.6 mph93%30.27 "Hg0 mi
1:45 PM32 °FFog.2 mph100%30.27 "Hg1 mi
1:15 PM32 °FIce fog.2 mph100%30.27 "Hg1 mi
12:45 PM32 °FIce fog.3 mph100%30.27 "Hg2 mi
12:15 PM34 °FFog.3 mph93%30.30 "Hg2 mi
11:45 AM34 °FFog.3 mph93%30.30 "Hg2 mi
11:15 AM34 °FFog.2 mph100%30.30 "Hg2 mi
10:45 AM34 °FFog.3 mph100%30.30 "Hg1 mi
10:15 AM34 °FFog.3 mph100%30.30 "Hg1 mi
9:45 AM34 °FFog.5 mph100%30.30 "Hg1 mi
9:15 AM34 °FFog.2 mph100%30.30 "Hg1 mi
8:45 AM32 °FFog.2 mph100%30.30 "Hg1 mi
8:15 AM32 °FFog.3 mph100%30.30 "Hg1 mi
7:45 AM34 °FFog.2 mph93%30.30 "Hg1 mi
7:15 AM32 °FFog.5 mph100%30.30 "Hg1 mi
6:45 AM34 °FFog.3 mph100%30.30 "Hg1 mi
6:15 AM34 °FFog.3 mph100%30.30 "Hg1 mi
5:45 AM34 °FFog.5 mph93%30.30 "Hg0 mi
5:15 AM32 °FFog.6 mph100%30.30 "Hg0 mi
Weather by CustomWeather, © 2014

See weather overviewHow to use our weather pages